Accueil
METAR-TAF:

METAR-TAF

Aéroports :

Nevers, France

Aéroport de Nevers-Fourchambault

latitude: 47-00N, longitude: 003-06E, altitude: 180 m

Observation

Le bulletin a été fait il y a 6 heures et 40 minutes, à 18:00 UTC
Vent 9 kt de nord
Température 3°C
Humidité 65%
Pression 1017 hPa
Visibilité: 8000 m

METAR: LFQG 211800Z AUTO 01009KT 8000 NSC 03/M03 Q1017

Heure: 01:40 (00:40 UTC)


TAF: absent

Observations et prévisions météorologiques de plus de 4000 aéroports (messages METAR et TAF).

Les stations disponibles sont représentées par des disques jaunes et rouges sur la carte.

Passer la souris dessus pour voir le nom de la station.

Cliquer dessus pour voir les observations et prévisions météorologiques.

Pour changer de carte: cliquez sur les boutons verts avec une croix noire pour zoomer, sur le bouton vert avec un tiret pour effectuer un zoom arrière, ou sur les flèches vertes pour les cartes adjacentes.


METAR-TAF: